Tracking 28126 objects as of 1-Oct-2023
HD Live streaming from Space Station
objects crossing your sky now

STARLINK-3333

Track STARLINK-3333 now!
10-day predictions
STARLINK-3333 is classified as:


NORAD ID: 50805
Int'l Code: 2022-001C
Perigee: 546.0 km
Apogee: 547.9 km
Inclination: 53.2 °
Period: 95.4 minutes
Semi major axis: 6917 km
RCS: Unknown
Launch date: January 6, 2022
Source: United States (US)
Launch site: AIR FORCE EASTERN TEST RANGE (AFETR)
Your satellite tracking list
Your tracking list is empty




NASA's NSSDC Master Catalog

Two Line Element Set (TLE):
1 50805U 22001C   23273.75628294  .00003767  00000-0  25476-3 0  9993
2 50805  53.2183 198.6810 0001395 101.4438 258.6711 15.08826102 97317
Source of the keplerian elements: AFSPC